{"data":{"norad_id":40296,"epoch":"2026-05-24T06:08:26.513952Z","epoch_age_seconds":142430,"freshness":"FRESH","line1":"1 40296U 14069A   26144.25586243  .00000211  00000+0  00000+0 0  9995","line2":"2 40296  63.4432 217.6858 6656956 270.7184  19.5763  2.00590499 84757","mean_motion":2.00590499,"eccentricity":0.6656956,"inclination_deg":63.4432,"raan_deg":217.6858,"arg_perigee_deg":270.7184,"mean_anomaly_deg":19.5763,"bstar":0,"rev_number":8475,"period_min":717.88046152674,"perigee_km":2500.3104425691,"apogee_km":37859.362835236,"semimajor_km":26557.973638902,"source":"CELESTRAK","updated_at":"2026-05-25T13:37:55.511039Z"}}